sat.trackr.live / text

‹ back to catalog

STARLINK-32890

NORAD 62896 · 2025-024T

PAYLOAD ACTIVE UNKNOWN

§ Identity

Operator
Country
US
Launch date
2025-02-04
Launch site
AFETR
Launch vehicle
Mass (kg)
RCS (m²)

Purposes: comms

External: N2YO · Heavens-Above · Gunter

§ Orbital elements

Epoch: 2026-05-25T00:11:56.478048Z

Period
94.27 min
Inclination
42.9996°
Eccentricity
0.0001020
Mean motion
15.27589231 rev/d
Perigee alt
482.3 km
Apogee alt
483.7 km
Semi-major
6,861.2 km
B*
7.5929e-4
RAAN
253.8583°
Arg perigee
278.0014°
Mean anomaly
82.0722°
Rev number
7,394

§ Raw data

STARLINK-328901 62896U 25024T   26145.00829257  .00020696  00000+0  75929-3 0  99922 62896  42.9996 253.8583 0001020 278.0014  82.0722 15.27589231 73948

JSON: /api/v1/satellites/62896 · /tle

For live sub-satellite position, see the globe view (requires WebGL).

§ Visibility from observer

Set your observer location to see the next 7 days of passes ≥ 10°. The values pass through the URL so the page stays shareable.

No JS? Fill the form by hand. The geolocation button needs JavaScript.